Dewpoint
2 2 0 -2 -2 -1 1 3 3 3 3 4 4 3 3 4 5 4 4 4 5 6 7 7 7 7 7 8 8 9 9 9 9 10 9 9 9 9 9 9 9 10
3 2 0 -1 -2 -1 2 3 4 4 5 5 5 4 2 3 4 5 4 4 5 6 7 7 7 6 6 6 7 8 9 9 9 9 9 9 8 9 9 9 9 9
4 2 0 -1 -2 -1 2 3 4 5 6 5 4 3 2 2 4 5 4 4 5 6 7 8 7 7 6 5 5 7 8 8 8 9 9 8 7 7 9 9 8 9
4 2 1 1 1 0 1 2 3 5 6 5 4 1 -1 2 4 4 4 3 4 4 5 6 6 6 5 5 5 6 7 8 8 7 7 7 6 6 8 8 8 8
4 3 3 2 1 0 1 3 4 5 6 6 6 2 -2 -0 3 5 4 2 1 2 3 4 5 5 4 5 6 6 6 7 6 5 5 5 5 6 7 7 7 8
6 6 5 4 2 1 2 3 4 5 6 7 6 3 -2 -4 -0 3 3 0 1 5 6 6 6 6 6 6 6 5 5 5 4 4 5 6 6 7 7 7 6 7
7 7 6 4 2 1 2 4 5 6 7 7 7 4 -2 -6 -5 -2 -1 -1 3 7 7 7 7 7 7 6 6 5 5 5 6 6 6 7 7 7 6 4 3 3
8 6 4 2 1 2 3 4 5 6 7 7 6 3 -1 -5 -6 -6 -3 2 6 7 7 7 6 6 6 7 7 7 6 7 6 6 5 6 5 4 3 2 1 1
7 4 1 1 2 2 3 3 5 6 6 6 4 1 -3 -5 -6 -7 -2 4 6 6 7 6 6 6 6 7 8 8 7 6 5 3 2 2 3 2 2 2 2 2
7 3 1 3 3 3 3 3 5 5 5 5 1 -4 -6 -7 -7 -9 -4 4 7 6 6 6 6 6 5 5 7 8 7 7 5 3 2 1 1 1 1 2 2 2
7 4 4 5 4 4 4 4 5 4 3 1 -4 -8 -8 -8 -8 -10 -8 1 5 5 5 5 5 5 4 4 4 5 7 8 7 6 4 3 3 3 3 3 3 2
6 4 4 5 5 5 4 4 5 3 0 -2 -6 -8 -8 -9 -9 -10 -9 -1 3 4 4 4 3 3 3 3 2 2 3 5 7 7 6 6 6 5 4 3 2 1
6 5 4 5 5 5 5 5 4 2 -2 -4 -7 -7 -6 -6 -5 -5 -5 -2 0 1 2 1 0 -1 -1 1 2 0 -3 -2 3 6 6 6 5 2 1 -1 -2 -1
6 5 5 6 6 6 6 6 5 2 -3 -6 -6 -4 -2 -1 -1 -1 -1 -2 -3 -3 -3 -3 -3 -3 -3 -3 -2 -3 -7 -9 -3 2 2 1 -1 -2 -2 -3 -4 -2
7 6 6 6 7 6 6 5 4 1 -3 -5 -3 -2 -1 0 1 1 1 0 -1 -2 -3 -3 -2 -2 -2 -2 -2 -2 -5 -10 -10 -6 -5 -5 -3 -2 -1 -1 -2 -2
7 7 7 6 6 6 6 5 2 -0 -4 -5 -3 -1 -0 0 1 1 1 1 1 1 0 1 1 0 -1 -1 -1 -0 -1 -3 -7 -8 -7 -4 -2 -2 -1 -0 0 0
7 7 6 5 4 5 7 5 2 -0 -4 -5 -3 -0 1 1 2 2 2 2 2 2 2 2 2 2 1 0 -0 -0 -0 0 -1 -2 -1 -1 -0 0 0 0 1 1
7 7 6 4 5 6 6 3 1 0 -3 -6 -4 -0 1 2 3 3 3 2 2 2 2 2 2 2 2 2 1 0 -0 -0 0 0 1 1 1 1 1 1 1 0
7 6 5 5 6 7 5 2 1 0 -1 -4 -3 -1 1 2 3 4 4 3 2 2 2 2 2 2 2 2 2 2 1 1 1 1 0 0 0 0 0 0 0 0
7 6 6 6 6 6 5 3 1 -0 -1 -1 -1 1 2 3 4 5 5 4 4 3 2 2 2 2 2 2 2 2 2 2 2 2 2 1 1 1 1 1 0 0
7 7 6 6 6 6 6 5 3 2 3 3 4 4 5 6 6 6 6 6 5 5 4 3 3 2 3 3 2 2 2 2 2 2 2 2 2 2 2 2 2 1
7 6 6 6 6 7 7 7 6 5 6 6 6 7 7 7 7 7 7 7 7 6 6 5 4 4 3 3 3 3 4 4 4 4 4 4 4 4 4 4 4 3
6 5 6 6 7 7 7 7 6 6 6 7 7 7 8 7 7 6 6 6 6 7 7 6 6 6 5 5 5 4 4 5 5 5 5 5 5 5 5 5 5 5
5 4 4 5 6 7 7 6 6 5 6 6 6 6 7 7 6 6 6 5 5 6 7 7 7 7 6 6 6 6 6 6 6 6 6 6 6 6 6 6 6 6
4 4 3 2 3 4 4 4 4 4 5 5 5 4 5 5 5 4 4 4 4 4 5 6 6 6 6 6 6 6 6 6 6 6 6 6 5 5 5 6 6 6
2 2 2 1 -0 -1 -1 -1 -1 -0 1 2 2 2 3 4 4 3 3 3 1 -1 -1 1 2 3 3 4 4 3 3 3 3 3 2 2 2 2 2 2 2 3
Wind_Speed
17 16 17 18 17 16 15 14 12 12 11 11 10 8 7 7 7 6 6 7 8 9 9 9 9 9 8 8 8 9 10 10 10 8 8 8 10 11 11 11 11 10
18 17 17 18 17 16 14 12 12 11 11 10 9 7 6 7 7 7 7 7 9 9 10 9 9 8 7 7 8 9 9 9 9 9 9 9 10 10 11 11 10 10
18 17 17 17 16 15 14 13 12 11 10 9 8 6 5 7 7 7 7 8 9 10 11 10 9 9 7 6 8 10 11 10 9 10 9 9 9 9 10 10 10 10
18 17 16 15 14 13 14 13 12 12 10 8 7 5 5 7 8 7 7 8 8 9 10 10 11 10 9 8 8 10 11 10 10 10 10 9 8 8 8 9 9 10
18 17 15 14 13 13 13 12 11 11 10 8 6 5 6 8 8 7 6 6 7 8 8 9 11 10 10 10 9 9 10 10 10 10 9 8 7 7 7 7 7 8
16 15 14 12 11 12 12 11 11 10 8 7 5 4 5 7 8 7 6 6 8 9 8 8 10 10 11 11 10 10 10 10 10 9 9 8 7 7 8 8 7 7
15 13 12 11 11 11 11 11 10 9 7 6 5 4 4 6 7 7 7 9 11 10 8 9 9 9 10 10 9 9 10 10 10 10 9 9 9 10 10 10 9 8
14 13 12 11 11 11 11 10 10 8 7 6 4 3 3 5 6 6 8 11 12 11 10 10 10 9 9 9 9 10 11 12 12 11 11 11 11 11 11 10 9 8
15 13 13 13 12 11 11 10 9 8 7 5 3 2 3 5 6 6 9 12 12 11 11 10 10 10 10 10 10 11 12 12 12 12 11 11 11 10 10 9 8 8
16 14 15 14 12 11 10 10 10 9 7 5 3 3 4 5 5 6 9 12 12 11 11 10 9 9 9 10 10 11 11 12 12 12 11 10 9 8 8 7 6 6
17 15 15 14 12 10 10 10 10 9 7 4 3 4 5 5 5 6 8 12 13 12 10 9 9 8 8 9 10 11 11 11 11 11 10 9 8 7 7 6 6 5
18 16 16 15 13 11 11 11 10 8 6 4 4 5 5 5 6 6 7 10 12 12 10 9 8 8 8 9 10 10 10 11 11 11 10 9 9 8 7 7 7 6
18 17 16 16 14 12 12 11 10 8 6 5 6 6 6 7 8 8 8 9 10 10 10 8 7 7 7 8 9 9 9 10 11 12 11 10 10 9 8 8 8 9
18 17 17 16 15 14 13 11 10 9 8 7 8 9 9 10 9 9 8 8 8 8 8 7 7 6 6 6 7 7 7 9 11 12 12 11 10 9 8 8 9 11
20 20 18 17 16 14 12 11 11 10 9 10 11 12 12 11 9 8 8 7 8 8 8 8 7 6 6 6 6 5 5 7 9 11 11 10 9 9 8 8 8 10
23 21 20 18 15 12 10 11 11 11 11 12 14 14 13 11 9 8 8 8 8 8 8 9 8 8 7 7 7 7 6 6 8 9 9 9 8 8 8 7 7 8
23 21 20 21 20 15 12 13 14 13 13 14 15 15 14 12 10 9 9 9 9 9 9 9 9 9 9 8 9 9 8 7 8 8 8 7 7 6 6 7 7 8
23 22 20 20 20 16 13 15 16 16 15 15 16 16 14 12 10 8 9 9 9 9 9 10 9 9 9 8 8 9 9 9 9 9 9 9 9 8 8 8 9 9
21 21 21 19 17 16 15 15 16 16 15 15 16 15 14 13 10 8 8 9 9 9 9 9 9 9 8 8 8 8 8 9 9 9 10 10 10 10 11 11 11 11
19 18 18 18 17 16 16 16 16 16 16 15 14 13 13 12 11 9 9 9 10 10 10 10 9 9 9 9 8 8 8 8 9 9 9 10 10 11 11 12 12 13
16 15 16 17 17 17 17 17 16 16 15 15 14 13 12 11 10 9 9 10 11 11 12 12 11 11 11 10 10 10 10 9 10 10 10 10 11 11 12 13 13 14
15 15 15 16 16 16 16 16 16 15 15 14 13 13 12 10 10 9 9 9 9 10 11 12 12 12 12 12 11 11 11 11 11 12 12 12 13 13 14 15 15 16
16 15 15 14 13 13 14 14 14 14 15 14 13 14 13 12 11 9 8 7 7 8 9 10 11 11 12 13 13 14 14 14 15 15 16 16 17 18 18 19 19 20
14 13 13 12 11 11 12 12 10 9 11 12 12 12 12 12 10 9 8 7 7 7 9 10 11 12 13 14 15 16 17 18 18 19 20 20 21 21 22 22 23 23
10 9 9 8 8 8 8 7 5 5 7 8 7 7 8 8 8 8 9 8 7 7 8 10 12 14 15 15 16 17 18 18 19 19 20 20 21 21 21 22 22 23
8 6 5 4 4 4 4 3 2 3 4 5 5 6 7 8 9 9 8 7 6 6 8 11 13 14 15 16 17 17 18 19 19 20 21 22 22 23 23 23 24 24
Wind_Direction
168 164 165 164 163 161 157 152 146 143 143 143 145 145 154 166 171 172 172 181 185 177 167 161 161 164 167 176 186 190 184 176 179 185 186 192 198 202 202 199 202 202
167 165 166 164 163 160 157 152 145 141 141 143 142 137 150 164 167 170 164 165 173 173 172 171 170 171 168 176 190 190 181 177 181 184 186 190 194 199 200 199 202 202
171 170 170 167 164 161 159 155 148 146 143 141 141 137 151 161 160 167 167 164 168 172 177 179 182 186 185 186 190 191 190 188 191 191 189 192 197 200 200 202 204 200
176 175 175 171 167 165 165 159 153 150 143 136 136 136 146 152 153 161 168 170 174 179 185 188 190 193 191 184 179 185 191 191 191 188 186 192 200 200 199 203 206 202
180 179 179 174 172 173 170 161 154 151 144 136 136 134 139 147 149 157 168 176 175 174 179 183 185 185 179 174 171 174 180 181 178 178 181 187 190 190 190 193 194 196
184 184 182 179 178 178 173 161 154 152 146 142 143 134 134 145 152 161 172 171 161 156 156 161 167 168 168 168 167 165 164 163 162 166 168 165 162 164 162 158 157 164
188 188 186 184 183 179 170 159 154 154 152 151 153 141 133 146 157 165 167 158 151 148 147 149 152 155 158 157 154 151 146 144 146 150 149 143 142 144 141 136 134 137
187 189 186 182 178 173 166 161 157 155 156 160 160 150 144 154 164 165 157 151 150 151 149 145 139 139 142 139 137 140 139 139 141 139 140 141 140 141 139 134 127 122
185 185 181 176 172 168 162 160 161 158 157 161 163 166 170 171 173 166 155 151 152 155 154 147 137 133 135 136 138 144 145 144 142 135 134 140 141 141 143 140 135 128
188 184 178 174 170 165 161 162 165 161 159 164 171 186 194 186 180 172 162 159 157 157 158 154 147 140 140 143 146 150 153 152 148 141 137 140 142 142 144 143 140 140
190 184 177 173 168 164 163 164 165 160 158 167 178 193 203 194 184 177 169 166 164 163 164 162 160 155 152 154 155 157 161 162 161 157 154 155 157 158 160 160 160 160
189 183 176 173 169 166 162 160 159 159 163 173 175 186 197 183 165 160 161 167 170 168 168 170 172 170 166 166 168 168 169 170 171 172 173 174 178 179 181 184 183 180
188 183 178 174 168 162 156 155 158 160 166 176 172 169 166 149 135 133 138 154 167 170 172 176 176 176 175 175 179 180 179 178 178 179 181 182 184 186 186 191 191 184
192 190 183 174 165 157 154 156 161 166 169 172 167 158 151 140 129 125 126 134 149 159 165 167 161 159 164 168 179 184 184 183 183 181 181 181 181 181 175 174 181 183
198 196 186 171 159 156 164 167 165 171 175 171 168 163 157 152 144 139 135 129 129 131 138 146 148 149 154 154 157 163 168 176 181 181 181 179 180 179 171 165 171 183
197 193 186 180 177 182 199 198 183 183 186 178 174 173 170 169 165 160 157 150 142 140 143 148 151 154 161 165 165 164 164 167 173 179 182 184 185 184 183 182 181 188
196 193 188 189 196 205 213 206 193 193 195 186 180 181 183 183 179 175 174 169 165 164 164 162 160 159 162 168 172 176 178 178 178 182 185 191 194 194 198 205 207 210
196 195 190 189 196 204 206 198 192 195 197 192 188 188 191 193 189 185 185 186 185 183 180 178 177 175 172 171 172 175 179 184 188 192 195 198 203 206 210 216 222 226
193 193 194 195 199 204 202 194 193 197 198 195 194 196 201 204 204 200 199 200 200 198 197 195 193 192 190 188 187 186 185 187 191 195 201 205 209 213 216 219 225 229
186 189 195 199 199 198 195 192 194 197 196 194 194 197 202 207 210 212 213 214 214 213 212 213 211 211 211 211 213 214 214 214 213 212 214 217 219 223 225 227 230 233
178 185 189 191 191 188 185 185 186 185 185 186 189 192 196 201 205 210 215 217 219 220 220 223 225 226 227 230 233 235 237 239 239 238 239 241 243 244 245 247 248 249
165 173 172 171 174 176 178 179 179 179 179 181 187 193 196 197 199 201 207 212 216 221 224 228 233 237 240 243 247 250 254 256 258 258 259 260 260 261 262 264 265 265
143 150 153 157 165 171 178 179 173 174 177 180 191 200 201 199 197 195 199 205 212 224 232 239 244 248 252 256 258 261 263 265 267 267 267 267 267 268 269 269 269 269
127 132 135 144 160 173 182 184 178 178 182 182 188 197 201 201 199 197 203 209 214 227 240 250 257 259 261 262 263 265 265 266 267 267 267 268 268 269 270 270 271 271
130 135 123 119 136 152 160 171 183 205 211 204 200 205 209 208 205 206 212 216 222 238 249 255 260 263 266 266 267 268 269 269 270 270 270 270 271 271 271 272 272 272
120 134 131 119 126 127 117 119 137 174 206 225 244 251 247 239 238 241 238 233 243 267 274 270 269 269 271 273 274 275 277 278 279 280 281 281 281 281 281 280 279 277
Height
1533 1534 1536 1537 1538 1540 1541 1542 1543 1544 1546 1547 1548 1548 1549 1550 1550 1551 1552 1552 1553 1554 1555 1555 1556 1557 1558 1559 1560 1561 1562 1564 1565 1566 1567 1568 1568 1569 1570 1571 1571 1572
1532 1534 1535 1536 1537 1539 1540 1541 1543 1544 1545 1546 1547 1548 1548 1549 1550 1550 1551 1552 1552 1554 1554 1555 1556 1557 1557 1558 1559 1560 1561 1563 1564 1565 1566 1567 1568 1568 1569 1570 1570 1571
1532 1533 1535 1536 1537 1538 1539 1541 1542 1543 1544 1545 1546 1547 1547 1548 1549 1550 1550 1551 1552 1553 1554 1555 1555 1556 1557 1557 1558 1559 1560 1562 1563 1564 1565 1566 1567 1567 1568 1569 1570 1571
1532 1533 1534 1536 1537 1538 1539 1540 1541 1543 1544 1545 1546 1546 1547 1548 1548 1549 1550 1551 1551 1552 1553 1554 1555 1555 1556 1557 1557 1558 1560 1561 1562 1563 1564 1565 1566 1567 1568 1569 1570 1571
1532 1533 1535 1536 1537 1538 1539 1540 1542 1543 1544 1545 1546 1546 1547 1547 1548 1549 1550 1550 1551 1552 1552 1553 1554 1555 1556 1556 1557 1558 1559 1560 1561 1562 1563 1564 1565 1567 1567 1569 1569 1570
1533 1534 1536 1537 1538 1539 1540 1541 1542 1543 1544 1545 1545 1546 1546 1547 1548 1548 1549 1550 1551 1552 1552 1553 1554 1555 1555 1556 1557 1558 1559 1560 1561 1562 1563 1564 1565 1566 1567 1568 1569 1570
1533 1535 1537 1538 1539 1540 1541 1542 1543 1543 1544 1545 1546 1546 1546 1547 1548 1548 1549 1550 1551 1552 1552 1553 1554 1554 1555 1556 1557 1558 1559 1559 1561 1562 1563 1564 1565 1566 1568 1569 1570 1571
1533 1535 1537 1538 1539 1540 1541 1542 1543 1544 1545 1545 1546 1546 1546 1547 1547 1548 1549 1550 1551 1552 1553 1553 1554 1554 1555 1556 1557 1558 1559 1560 1561 1562 1563 1564 1566 1567 1568 1569 1570 1571
1532 1534 1535 1537 1538 1540 1541 1542 1543 1544 1545 1545 1546 1546 1546 1547 1547 1548 1548 1550 1551 1552 1553 1554 1554 1555 1555 1556 1557 1558 1559 1560 1561 1562 1564 1565 1566 1567 1568 1569 1570 1571
1531 1532 1534 1536 1538 1539 1540 1542 1543 1544 1545 1545 1546 1546 1546 1546 1547 1547 1548 1549 1550 1552 1553 1554 1554 1555 1556 1556 1557 1558 1559 1560 1561 1562 1563 1565 1566 1567 1568 1569 1570 1571
1530 1532 1534 1536 1537 1539 1540 1541 1542 1543 1544 1545 1546 1546 1546 1546 1547 1547 1548 1549 1550 1551 1552 1553 1554 1555 1555 1556 1557 1558 1558 1560 1561 1562 1563 1564 1565 1566 1567 1568 1569 1570
1530 1531 1533 1535 1537 1538 1539 1540 1542 1543 1544 1544 1545 1546 1546 1546 1547 1547 1547 1548 1549 1551 1552 1553 1554 1555 1555 1556 1557 1557 1558 1559 1560 1561 1562 1564 1565 1566 1567 1568 1569 1570
1530 1531 1533 1535 1537 1538 1539 1540 1541 1542 1543 1544 1545 1545 1546 1547 1547 1547 1548 1548 1549 1550 1551 1552 1553 1554 1555 1556 1557 1557 1558 1559 1560 1561 1562 1563 1564 1565 1566 1567 1568 1570
1530 1531 1532 1534 1536 1537 1539 1540 1541 1542 1543 1544 1545 1545 1546 1547 1547 1548 1548 1549 1549 1550 1551 1552 1553 1554 1555 1556 1556 1557 1558 1559 1560 1561 1561 1563 1564 1565 1566 1567 1568 1569
1530 1531 1531 1533 1535 1537 1539 1540 1540 1541 1542 1543 1545 1545 1546 1547 1548 1548 1549 1549 1550 1550 1551 1552 1552 1553 1554 1555 1556 1557 1558 1559 1559 1560 1561 1562 1563 1564 1566 1567 1568 1569
1528 1529 1530 1532 1534 1537 1538 1539 1540 1541 1542 1543 1544 1545 1546 1547 1548 1548 1549 1549 1550 1550 1551 1551 1552 1553 1553 1554 1555 1556 1557 1558 1559 1560 1561 1562 1563 1564 1565 1566 1567 1568
1527 1528 1529 1531 1533 1535 1537 1538 1539 1540 1542 1543 1544 1545 1546 1547 1548 1548 1548 1549 1549 1550 1550 1551 1552 1552 1553 1554 1554 1555 1556 1557 1558 1559 1560 1562 1563 1564 1565 1566 1567 1568
1525 1527 1528 1530 1532 1534 1535 1536 1538 1540 1541 1542 1543 1545 1546 1547 1547 1548 1548 1548 1549 1549 1550 1550 1551 1552 1552 1553 1554 1555 1556 1557 1558 1559 1559 1560 1561 1562 1564 1565 1566 1566
1525 1526 1528 1529 1531 1532 1534 1536 1537 1539 1540 1541 1542 1544 1545 1546 1547 1547 1548 1548 1548 1549 1549 1550 1550 1551 1552 1553 1553 1554 1555 1556 1557 1558 1558 1559 1560 1561 1562 1563 1563 1564
1525 1526 1527 1528 1530 1532 1533 1535 1537 1539 1539 1540 1541 1543 1544 1546 1546 1547 1547 1548 1548 1548 1549 1549 1550 1550 1551 1552 1553 1554 1554 1555 1556 1557 1557 1558 1559 1559 1560 1561 1561 1562
1524 1526 1527 1528 1530 1532 1533 1535 1536 1537 1538 1540 1541 1542 1543 1544 1545 1546 1546 1547 1547 1548 1548 1548 1549 1549 1550 1551 1552 1553 1553 1554 1555 1555 1556 1557 1557 1558 1559 1559 1560 1560
1524 1525 1527 1529 1530 1532 1534 1535 1536 1537 1538 1539 1540 1541 1542 1543 1543 1544 1545 1546 1546 1547 1547 1547 1548 1548 1549 1550 1550 1551 1552 1552 1553 1553 1554 1555 1555 1556 1557 1558 1558 1559
1525 1527 1529 1531 1532 1533 1534 1535 1536 1537 1537 1539 1540 1540 1541 1542 1542 1543 1543 1544 1545 1546 1546 1546 1547 1547 1548 1548 1548 1549 1549 1550 1550 1551 1551 1552 1553 1554 1554 1555 1555 1556
1527 1529 1530 1531 1532 1533 1534 1535 1536 1537 1538 1538 1539 1539 1540 1541 1542 1542 1543 1543 1543 1544 1544 1545 1545 1545 1546 1546 1546 1547 1547 1547 1547 1548 1548 1549 1550 1550 1551 1551 1552 1552
1529 1530 1531 1532 1533 1533 1533 1534 1535 1537 1538 1538 1539 1539 1540 1540 1541 1541 1541 1542 1542 1542 1543 1543 1543 1543 1544 1544 1544 1544 1544 1544 1545 1545 1545 1546 1547 1547 1548 1548 1548 1548
1529 1530 1532 1533 1533 1533 1534 1534 1535 1536 1537 1538 1538 1539 1539 1539 1540 1540 1541 1541 1540 1540 1541 1542 1542 1542 1542 1542 1542 1542 1542 1542 1542 1542 1542 1543 1543 1544 1544 1544 1544 1545